Location: Cambridge (historical)
(38.6883°N, 119.0140°W)
Time: 17:29:40
(UTC+00:00)

Cosmos 1833 Rocket - Pass Details

Date: 29 October 2020
Orbit: 832 x 840 km, 71.0° (Epoch: 23 November)

Event Time Altitude Azimuth Distance (km) Brightness Sun altitude
Exits shadow 13:29:05 12° 296° (WNW) 2,298 4.4 -10.6°
Maximum altitude 13:30:27 13° 311° (NW) 2,237 4.4 -10.3°
Drops below altitude 10° 13:33:04 10° 339° (NNW) 2,463 4.8 -9.8°
Sets 13:37:01 0° 6° (N) 3,402 5.8 -9.1°
